Location: Sihaung
(22.8641°N, 94.0549°E)
Time: 12:20:39
(UTC+00:00)

ERS-2 - Pass Details

Date: 03 March 2021
Orbit: 492 x 496 km, 98.6° (Epoch: 16 April)

Event Time Altitude Azimuth Distance (km) Brightness Sun altitude
Rises 12:10:57 0° 15° (NNE) 2,578 5.5 -6.1°
Reaches altitude 10° 12:13:02 10° 18° (NNE) 1,693 4.6 -6.6°
Maximum altitude 12:16:39 68° 101° (ESE) 534 2.0 -7.4°
Drops below altitude 10° 12:20:16 10° 186° (S) 1,687 4.9 -8.2°
Sets 12:22:20 0° 188° (S) 2,566 5.9 -8.7°
